Terminal Aerodrome Forecast
Issued by NWS Rapid City, SD

Home | Current Version | Previous Version | Text Only | Print | Product List | Glossary Off
Versions: 1 2 3 4 5 6 7 8 9 10 11 12 13 14 15 16 17 18 19 20 21 22

811
FTUS43 KUNR 252320
TAFRAP
TAF
KRAP 252320Z 2600/2624 36016KT P6SM SCT008 OVC050
      TEMPO 2600/2603 3SM -SN BR BKN009
     FM260300 34013KT P6SM OVC015
     FM261700 35009KT P6SM SCT025=

USA.gov is the U.S. government's official web portal to all federal, state and local government web resources and services.